User: anonymous   Login
Location: Civry
(47.2902°N, 4.6156°E)
Time: 11:22:38
(UTC+00:00)
Language:

Cosmos 2082 Rocket - Orbit

View from above orbital plane
View from above orbital plane
View from above satellite
View from above satellite

Ground track
Ground track

The orbit data is extracted from the following two-line orbital elements,

1 20625U 90046B   20190.78888281 -.00000238 +00000-0 -98990-4 0  9990
2 20625 070.9995 323.4160 0015576 216.8089 143.1965 14.14653303555636
Epoch (UTC): 08 July 2020 18:55:59
Eccentricity: 0.0015576
inclination: 70.9995°
perigee height: 832 km
apogee height: 855 km
right ascension of ascending node: 323.4160°
argument of perigee: 216.8089°
revolutions per day: 14.14653303
mean anomaly at epoch: 143.1965°
orbit number at epoch: 55563

The dashed part of the orbit path shows where the satellite is in the earth's shadow,  

DLR